IRIDIUM 33 DEB, 35680

Orbit data source: Space-Track

IRIDIUM 33 DEB, 35680 is space debris in LEO originally from a launch on Sun, 14 Sep 1997 UTC launched from the Tyuratam Missile And Space Complex (TTMTR). The debris from Iridium 33, an American commercial communications satellite, has been tracked extensively since its accidental collision with the defunct Russian satellite Cosmos 2251 in 2009. This event, occurring at high speed in low Earth orbit (LEO), generated thousands of pieces of space debris, significantly increasing the risk of further collisions. The Iridium 33 debris cloud has impacted space traffic management and orbital debris mitigation strategies, making it a subject of ongoing study in space situational awareness.

Loading next visibility...
Identifier
35680, 1997-051RJ
Orbit
LEO
Country
Flag of USUS
Related business
Manufacturer
Unknown
Mission
Spacecraft
Bus & Motor
Unknown
Mass
Unknown
Launch date (UTC)
1997-09-14 (28 years ago)
Launch vehicle
Unknown
Launch site
Tyuratam Missile And Space Complex (TTMTR)
Object type
Payload
Rocket body
Debris
Shape & HBR
Unknown shape, 0.1 m
Radar Cross Section
Small (<0.1 m²)

Expand to show TLE details & history
Last TLE update: 18 hours ago

TLE from 18 hours ago
0 IRIDIUM 33 DEB
1 35680U 97051RJ  25351.84467503  .00006829  00000-0  28028-2 0  9994
2 35680  86.1025  19.2625 0150504 262.1515 279.7609 14.21000805607732
Epoch: 2025-12-17T20:16Z
TLE epoch observation values (Epoch: 2025-12-17T20:16:19.922Z)
Latitude
-0.32772°
Longitude
168.493°
Altitude
808.257 km
Speed
7.458 km/s
True Right ascension
13h 17m 08s
True Declination
0° 19' 33"
Sunlit
Object was in daylight at epoch
Visualization orbit readout
Latitude
Unknown
Longitude
Unknown
Altitude
Unknown
Speed
Unknown
Apparent Right ascension
Unknown
Apparent Declination
Unknown
Sunlit
N/A
Visualization observer readout
Local Sidereal Time
12:56:25
Azimuth
Unknown
Elevation
Unknown
Doppler factor
Unknown
Orbital elements
Apogee altitude
927.278 km
Perigee altitude
710.639 km
Semi-major axis
7,197.095 km
Eccentricity
0.01505
Inclination
86.1025°
RAAN
19.2625°
Arg. of periapsis
262.1515°
True anomaly
278.05603°
Mean anomaly
279.7609°
Eccentric anomaly
278.90898°
Mean motion
3.55474 °/min
Orbital period
101.27 mins
BSTAR
0.0028028

Documentation

Showing up to 5 results
|